Location: Nebraska Star Party
(42.6000°N, 100.8833°W)
Time: 03:47:09
(UTC-06:00)

Amateur Radio Satellites - All Passes

Search period start: 20 January 2017 03:17
Search period end: 21 January 2017 03:17
Location: Nebraska Star Party, 42.6000°N, 100.8833°W

Satellite Date Start Highest point End Downlink Frequencies (MHz)
Time Altitude Azimuth
SWISSCUBE 20 Jan 03:18:04 03:22:20 33° 263° (W) 03:26:38 437.505
STARS 20 Jan 03:21:05 03:22:38 12° 60° (ENE) 03:24:12 437.465
M-CUBED/EXP-1 PRIME 20 Jan 03:22:55 03:27:12 55° 68° (ENE) 03:31:13 437.505
AIST 2 20 Jan 03:29:02 03:31:17 14° 38° (NE) 03:33:32 435.215
Oscar 19 20 Jan 03:43:33 03:47:08 19° 298° (WNW) 03:50:43 437.125/150
CUSAT 1 20 Jan 03:45:53 03:50:52 66° 95° (E) 03:57:23 437.405
Cosmos 2491 20 Jan 03:52:07 04:00:26 49° 286° (WNW) 04:08:51 435.465 / 435.565
Gurwin Techsat 1B 20 Jan 03:52:55 03:57:26 29° 295° (WNW) 04:01:56 435.225
KKS-1 20 Jan 03:59:29 04:03:53 62° 73° (ENE) 04:08:17 437.445
ISS 20 Jan 03:59:51 04:02:42 27° 20° (NNE) 04:05:32 145.825
AUBIESAT-1 20 Jan 04:00:01 04:04:20 72° 253° (WSW) 04:08:22 437.475
CUBESAT XI-V 20 Jan 04:00:55 04:05:01 30° 68° (ENE) 04:09:07 437.345
RS-15 20 Jan 04:16:40 04:26:34 27° 347° (NNW) 04:36:35 29.354- 29.394
ITAMSAT 1 20 Jan 04:24:03 04:29:14 66° 287° (WNW) 04:34:23 435.822/435.867
DANDE 20 Jan 04:32:43 04:36:18 43° 92° (E) 04:41:04 436.750
Cosmos 2504 20 Jan 04:38:09 04:42:46 18° 281° (WNW) 04:47:20 435.465 / 435.565
PHONESAT 2.4 20 Jan 04:41:31 04:43:45 48° 178° (S) 04:45:59 2401.200-2431.200
AO-7 20 Jan 04:52:06 05:00:32 85° 290° (WNW) 05:08:52 29.400- 29.500
STARS 20 Jan 04:54:00 04:58:22 76° 257° (WSW) 05:02:45 437.465
MOZHAYETS 4 20 Jan 04:56:06 04:58:10 13° 271° (W) 05:00:16
M-CUBED/EXP-1 PRIME 20 Jan 04:59:26 05:01:50 14° 262° (W) 05:04:12 437.505
HORYU 2 20 Jan 05:02:06 05:03:14 11° 89° (E) 05:04:22 437.375
AIST 2 20 Jan 05:06:07 05:10:23 88° 57° (ENE) 05:14:38 435.215
CUSAT 1 20 Jan 05:29:45 05:33:43 20° 301° (WNW) 05:38:22 437.405
ISS 20 Jan 05:36:09 05:39:21 54° 218° (SW) 05:42:31 145.825
CUBESAT XI-V 20 Jan 05:38:15 05:42:20 29° 265° (W) 05:46:27 437.345
STRAND 1 20 Jan 05:38:19 05:40:15 12° 57° (ENE) 05:42:11 437.568
KKS-1 20 Jan 05:38:49 05:40:50 13° 269° (W) 05:42:51 437.445
BRITE-PL 20 Jan 05:44:21 05:49:18 75° 102° (ESE) 05:53:50 437.365/2234.400
GOMX 1 20 Jan 05:50:46 05:54:44 31° 95° (E) 05:58:32 467.674
GONETS M04 20 Jan 05:54:06 06:00:13 20° 61° (ENE) 06:06:17
LilacSat-2 20 Jan 05:59:12 06:01:37 16° 92° (E) 06:04:01 437.200
Cubesat XI-IV 20 Jan 06:14:42 06:19:01 25° 94° (E) 06:23:22 437.490
PHONESAT 2.4 20 Jan 06:15:34 06:17:37 28° 195° (SSW) 06:19:40 2401.200-2431.200
DANDE 20 Jan 06:16:53 06:19:38 17° 300° (WNW) 06:22:52 436.750
NOAA 18 20 Jan 06:17:08 06:19:53 14° 90° (E) 06:22:37 137.9125
NOAA 15 20 Jan 06:24:49 06:29:34 32° 96° (E) 06:34:16 137.62
DOVE 4 20 Jan 06:31:43 06:35:30 32° 96° (E) 06:39:12 437.250
RS-15 20 Jan 06:33:51 06:44:27 31° 23° (NNE) 06:54:51 29.354- 29.394
HORYU 2 20 Jan 06:35:49 06:40:16 73° 286° (WNW) 06:44:42 437.375
AO-7 20 Jan 06:46:17 06:52:09 22° 310° (NW) 06:58:00 29.400- 29.500
HO-68 20 Jan 06:53:07 06:56:28 14° 87° (E) 06:59:48 435.675
O/OREOS (USA 219) 20 Jan 06:55:59 07:00:24 64° 110° (ESE) 07:04:50 437.305
Cosmos 2499 20 Jan 06:56:55 07:03:52 50° 76° (ENE) 07:10:41 435.465 / 435.565
CUTE-I 20 Jan 07:10:51 07:16:14 81° 105° (ESE) 07:21:35 437.470
STRAND 1 20 Jan 07:13:32 07:18:37 87° 75° (ENE) 07:23:46 437.568
BRITE-PL 20 Jan 07:24:40 07:27:01 13° 301° (WNW) 07:29:16 437.365/2234.400
GOMX 1 20 Jan 07:29:08 07:32:41 23° 294° (WNW) 07:36:05 467.674
LilacSat-2 20 Jan 07:32:27 07:36:03 38° 288° (WNW) 07:39:39 437.200
SO-50 20 Jan 07:45:48 07:49:35 24° 113° (ESE) 07:53:22 436.795
GONETS M04 20 Jan 07:49:28 07:58:21 88° 82° (E) 08:07:13
PRISM 20 Jan 07:50:38 07:51:45 11° 61° (ENE) 07:52:51 437.425
CUTE 1.7 + AOD 2 20 Jan 07:51:34 07:55:25 31° 96° (E) 07:59:14 437.475
Cubesat XI-IV 20 Jan 07:54:13 07:59:16 44° 291° (WNW) 08:04:18 437.490
NOAA 18 20 Jan 07:55:40 08:01:09 78° 287° (WNW) 08:06:35 137.9125
CINEMA 3 20 Jan 08:02:21 08:06:32 74° 102° (ESE) 08:10:49 145.822/145.860
NOAA 15 20 Jan 08:04:33 08:09:19 34° 293° (WNW) 08:14:03 137.62
DOVE 4 20 Jan 08:09:51 08:13:02 21° 294° (WNW) 08:16:10 437.250
CANX-2 20 Jan 08:20:25 08:24:45 78° 101° (E) 08:29:02 2200.000
PCSat 20 Jan 08:24:14 08:26:27 12° 34° (NE) 08:28:39 145.827
SEEDS 20 Jan 08:32:08 08:36:22 59° 101° (E) 08:40:33 437.485
O/OREOS (USA 219) 20 Jan 08:37:37 08:40:15 15° 308° (NW) 08:42:54 437.305
ANTELSAT 20 Jan 08:37:57 08:38:43 10° 60° (ENE) 08:39:29 437.575/2403.000
HO-68 20 Jan 08:38:01 08:45:15 80° 105° (ESE) 08:52:25 435.675
COMPASS 1 20 Jan 08:38:10 08:42:13 45° 98° (E) 08:46:14 437.405
RS-15 20 Jan 08:47:15 08:59:40 72° 52° (NE) 09:11:36 29.354- 29.394
Oscar 11 20 Jan 08:48:51 08:51:52 18° 92° (E) 08:54:52 145.826/435.025
AAUSAT CUBESAT 2 20 Jan 08:49:43 08:53:46 46° 98° (E) 08:57:46 437.432
Cosmos 2499 20 Jan 08:50:44 08:56:33 28° 276° (W) 09:02:19 435.465 / 435.565
CUTE-I 20 Jan 08:52:39 08:55:35 15° 301° (WNW) 08:58:31 437.470
STRAND 1 20 Jan 08:57:09 08:58:28 11° 272° (W) 08:59:47 437.568
CUBEBUG 2 20 Jan 08:58:46 09:03:05 73° 101° (E) 09:07:32 437.445
PRISM 20 Jan 09:22:15 09:26:25 75° 257° (WSW) 09:30:37 437.425
FUNcube-1 20 Jan 09:24:04 09:28:19 47° 99° (E) 09:32:38 145.935
SO-50 20 Jan 09:25:20 09:29:50 43° 310° (NW) 09:34:17 436.795
CUTE 1.7 + AOD 2 20 Jan 09:27:39 09:31:06 24° 293° (WNW) 09:34:32 437.475
UWE-3 20 Jan 09:27:42 09:32:04 86° 287° (WNW) 09:36:33 435.000/436.395/437.385
JAS-2 20 Jan 09:36:54 09:40:44 20° 58° (ENE) 09:44:48 435.910
NOAA 18 20 Jan 09:38:54 09:40:54 12° 305° (NW) 09:42:54 137.9125
UNISAT 6 20 Jan 09:42:04 09:46:11 50° 73° (ENE) 09:50:19 437.425
CINEMA 3 20 Jan 09:42:09 09:43:06 11° 298° (WNW) 09:44:04 145.822/145.860
ZACube-1 20 Jan 09:46:57 09:51:21 88° 284° (WNW) 09:55:50 437.345
GONETS M04 20 Jan 09:48:16 09:53:55 19° 283° (WNW) 09:59:36
TIGRISAT 20 Jan 09:55:22 09:59:35 66° 75° (ENE) 10:03:48 435.000
CANX-2 20 Jan 09:58:47 09:59:57 11° 299° (WNW) 10:01:07 2200.000
HUMSAT D 20 Jan 10:00:31 10:03:46 20° 93° (E) 10:06:59 437.325/437.525
PCSat 20 Jan 10:05:43 10:11:05 56° 56° (NE) 10:16:24 145.827
DELFI C3 20 Jan 10:08:44 10:12:35 44° 99° (E) 10:16:22 145.870
SEEDS 20 Jan 10:09:25 10:11:33 14° 297° (WNW) 10:13:40 437.485
ANTELSAT 20 Jan 10:10:31 10:14:47 79° 259° (W) 10:19:04 437.575/2403.000
COMPASS 1 20 Jan 10:14:41 10:17:24 17° 295° (WNW) 10:20:06 437.405
DUCHIFAT 1 20 Jan 10:17:49 10:18:32 10° 61° (ENE) 10:19:15 145.980
NANOSAT C BR1 20 Jan 10:21:58 10:23:53 13° 62° (ENE) 10:25:48 145.865
Oscar 11 20 Jan 10:24:03 10:28:11 42° 288° (WNW) 10:32:17 145.826/435.025
AAUSAT CUBESAT 2 20 Jan 10:26:15 10:28:51 16° 296° (WNW) 10:31:28 437.432
HO-68 20 Jan 10:26:58 10:32:11 22° 304° (NW) 10:37:22 435.675
CUBEBUG 2 20 Jan 10:37:34 10:39:10 12° 298° (WNW) 10:40:46 437.445
RS-15 20 Jan 11:00:41 11:11:16 37° 255° (WSW) 11:21:32 29.354- 29.394
FUNcube-1 20 Jan 11:01:19 11:04:12 18° 295° (WNW) 11:07:08 145.935
QB50P1 20 Jan 11:11:43 11:15:44 46° 72° (ENE) 11:19:45 145.935-145.965
POLYITAN 1 20 Jan 11:15:47 11:19:51 52° 73° (ENE) 11:23:55 437.675
QB50P2 20 Jan 11:16:58 11:21:05 58° 73° (ENE) 11:25:12 145.880/145.840
JAS-2 20 Jan 11:19:57 11:25:12 61° 260° (W) 11:30:59 435.910
UNISAT 6 20 Jan 11:20:54 11:23:12 14° 269° (W) 11:25:31 437.425
BY70-1 20 Jan 11:31:36 11:34:51 49° 99° (E) 11:37:54 436.1900
HUMSAT D 20 Jan 11:35:31 11:39:26 36° 290° (WNW) 11:43:23 437.325/437.525
TIGRISAT 20 Jan 11:35:41 11:36:43 11° 271° (W) 11:37:46 435.000
POPSAT HIP 1 20 Jan 11:38:26 11:42:37 89° 257° (WSW) 11:46:51 437.405
DELFI C3 20 Jan 11:44:36 11:47:00 16° 295° (WNW) 11:49:24 145.870
Oscar 19 20 Jan 11:44:54 11:47:11 13° 58° (ENE) 11:49:27 437.125/150
CUBEBUG 1 20 Jan 11:48:32 11:51:58 23° 94° (E) 11:55:24 437.445
DUCHIFAT 1 20 Jan 11:49:25 11:53:35 78° 256° (WSW) 11:57:46 145.980
PCSat 20 Jan 11:50:00 11:54:02 22° 254° (WSW) 11:58:04 145.827
NANOSAT C BR1 20 Jan 11:54:58 11:59:06 61° 259° (W) 12:03:15 145.865
AISAT 20 Jan 12:04:41 12:08:07 22° 94° (E) 12:11:31 437.250
Cosmos 2491 20 Jan 12:05:34 12:11:35 20° 61° (ENE) 12:17:33 435.465 / 435.565
50 SAT 20 Jan 12:16:34 12:19:07 18° 94° (E) 12:21:38 437.505
BUGSAT 1 20 Jan 12:24:29 12:28:33 87° 253° (WSW) 12:32:37 437.445
ESTCUBE 1 20 Jan 12:25:42 12:30:16 83° 286° (WNW) 12:34:46 437.505/2401.250
VELOX 1 20 Jan 12:37:28 12:41:44 47° 100° (E) 12:45:57 145.980
CUSAT 1 20 Jan 12:38:05 12:41:36 13° 54° (NE) 12:45:04 437.405
QB50P1 20 Jan 12:49:17 12:51:45 15° 268° (W) 12:54:13 145.935-145.965
POLYITAN 1 20 Jan 12:53:50 12:55:56 14° 269° (W) 12:58:04 437.675
QB50P2 20 Jan 12:55:29 12:57:14 12° 270° (W) 12:58:59 145.880/145.840
SPROUT 20 Jan 13:06:39 13:10:54 76° 102° (ESE) 13:15:09 437.525
UKube-1 20 Jan 13:09:11 13:13:10 35° 98° (E) 13:17:06 .
DX 1 20 Jan 13:09:48 13:14:02 49° 100° (E) 13:18:13 434.975-435.025
Oscar 19 20 Jan 13:20:30 13:25:43 89° 55° (NE) 13:30:58 437.125/150
CUBEBUG 1 20 Jan 13:24:26 13:28:18 32° 291° (WNW) 13:32:08 437.445
DANDE 20 Jan 13:27:34 13:29:58 11° 56° (ENE) 13:32:26 436.750
AO-85 20 Jan 13:29:32 13:32:49 19° 112° (ESE) 13:35:56 145.980
AIST 1 20 Jan 13:32:42 13:35:30 17° 86° (E) 13:38:18
Gurwin Techsat 1B 20 Jan 13:34:19 13:39:34 66° 73° (ENE) 13:44:50 435.225
Cosmos 2504 20 Jan 13:34:24 13:37:03 12° 74° (ENE) 13:39:41 435.465 / 435.565
AISAT 20 Jan 13:40:40 13:44:38 34° 291° (WNW) 13:48:36 437.250
50 SAT 20 Jan 13:49:17 13:52:20 27° 290° (WNW) 13:55:21 437.505
AO-7 20 Jan 14:00:27 14:07:39 34° 57° (ENE) 14:14:51 29.400- 29.500
Cosmos 2491 20 Jan 14:00:55 14:09:45 88° 82° (E) 14:18:35 435.465 / 435.565
ITAMSAT 1 20 Jan 14:04:26 14:08:43 27° 65° (ENE) 14:13:00 435.822/435.867
YUBILEINY 20 Jan 14:08:01 14:16:07 43° 87° (E) 14:24:15 435.215
VELOX 1 20 Jan 14:14:53 14:17:49 18° 296° (WNW) 14:20:44 145.980
CUSAT 1 20 Jan 14:17:24 14:25:18 58° 75° (ENE) 14:32:38 437.405
TISAT 1 20 Jan 14:34:38 14:38:49 81° 284° (WNW) 14:43:00 437.305
ITUPSAT 1 20 Jan 14:41:09 14:44:56 23° 94° (E) 14:48:42 437.325
SPROUT 20 Jan 14:45:01 14:46:12 11° 299° (WNW) 14:47:24 437.525
UKube-1 20 Jan 14:45:40 14:48:59 22° 294° (WNW) 14:52:16 .
DX 1 20 Jan 14:47:05 14:49:49 17° 297° (WNW) 14:52:32 434.975-435.025
Oscar 19 20 Jan 15:04:22 15:05:43 11° 272° (W) 15:07:05 437.125/150
DANDE 20 Jan 15:06:42 15:14:15 53° 75° (ENE) 15:22:22 436.750
AO-85 20 Jan 15:08:21 15:12:56 52° 307° (NW) 15:17:12 145.980
AIST 1 20 Jan 15:08:35 15:12:44 41° 283° (WNW) 15:16:53
MOZHAYETS 4 20 Jan 15:11:42 15:14:18 15° 90° (E) 15:16:52
BEESAT 20 Jan 15:15:09 15:19:49 50° 100° (E) 15:24:27 436.000
Gurwin Techsat 1B 20 Jan 15:16:44 15:19:59 16° 270° (W) 15:23:15 435.225
SWISSCUBE 20 Jan 15:16:44 15:21:30 58° 102° (ESE) 15:26:13 437.505
BRITE-PL 20 Jan 15:19:12 15:22:11 15° 60° (ENE) 15:25:07 437.365/2234.400
Cosmos 2504 20 Jan 15:20:21 15:28:55 66° 93° (E) 15:37:00 435.465 / 435.565
O/OREOS (USA 219) 20 Jan 15:27:00 15:29:53 16° 53° (NE) 15:32:45 437.305
ITAMSAT 1 20 Jan 15:43:10 15:47:59 40° 262° (W) 15:52:51 435.822/435.867
AO-7 20 Jan 15:51:42 15:59:57 62° 256° (WSW) 16:08:16 29.400- 29.500
KKS-1 20 Jan 15:52:15 15:53:20 11° 89° (E) 15:54:27 437.445
Cosmos 2491 20 Jan 15:59:43 16:05:22 19° 283° (WNW) 16:11:01 435.465 / 435.565
CUSAT 1 20 Jan 15:59:59 16:06:46 32° 274° (W) 16:13:09 437.405
HORYU 2 20 Jan 16:00:48 16:02:36 12° 60° (ENE) 16:04:24 437.375
YUBILEINY 20 Jan 16:04:34 16:12:51 44° 287° (WNW) 16:21:14 435.215
SO-50 20 Jan 16:15:48 16:19:44 28° 45° (NE) 16:23:36 436.795
ITUPSAT 1 20 Jan 16:18:24 16:22:54 40° 290° (WNW) 16:27:23 437.325
BEESAT 3 20 Jan 16:19:56 16:23:17 28° 115° (ESE) 16:26:41 437.485
M-CUBED/EXP-1 PRIME 20 Jan 16:35:58 16:38:53 27° 102° (ESE) 16:41:42 437.505
STARS 20 Jan 16:43:29 16:46:30 18° 93° (E) 16:49:30 437.465
MOZHAYETS 4 20 Jan 16:47:14 16:51:49 59° 287° (WNW) 16:56:22
DANDE 20 Jan 16:49:46 16:56:47 38° 271° (W) 17:04:14 436.750
BEESAT 20 Jan 16:53:49 16:57:13 20° 297° (WNW) 17:00:36 436.000
BRITE-PL 20 Jan 16:54:09 16:59:51 89° 79° (E) 17:05:31 437.365/2234.400
CUTE-I 20 Jan 16:55:30 16:59:14 20° 61° (ENE) 17:02:58 437.470
SWISSCUBE 20 Jan 16:55:43 16:58:49 17° 298° (WNW) 17:01:53 437.505
GOMX 1 20 Jan 16:58:15 17:03:18 43° 71° (ENE) 17:08:10 467.674
BEESAT 2 20 Jan 17:04:38 17:08:17 37° 117° (ESE) 17:11:58 435.950
O/OREOS (USA 219) 20 Jan 17:05:15 17:09:41 59° 251° (WSW) 17:14:07 437.305
AUBIESAT-1 20 Jan 17:12:11 17:15:33 68° 107° (ESE) 17:18:49 437.475
Cosmos 2504 20 Jan 17:15:44 17:22:50 28° 292° (WNW) 17:29:39 435.465 / 435.565
HO-68 20 Jan 17:24:19 17:27:31 14° 49° (NE) 17:30:43 435.675
KKS-1 20 Jan 17:25:58 17:30:24 72° 286° (WNW) 17:34:47 437.445
CUBESAT XI-V 20 Jan 17:33:12 17:37:54 67° 101° (E) 17:42:32 437.345
HORYU 2 20 Jan 17:34:10 17:38:33 73° 257° (WSW) 17:42:58 437.375
DOVE 4 20 Jan 17:37:01 17:41:39 40° 71° (ENE) 17:46:04 437.250
Cubesat XI-IV 20 Jan 17:37:09 17:42:10 44° 69° (ENE) 17:47:11 437.490
NOAA 18 20 Jan 17:43:12 17:47:56 30° 65° (ENE) 17:52:39 137.9125
NOAA 15 20 Jan 17:45:20 17:50:29 55° 71° (ENE) 17:55:41 137.62
AO-7 20 Jan 17:53:18 17:54:20 10° 275° (W) 17:55:22 29.400- 29.500
SO-50 20 Jan 17:56:07 18:00:15 37° 244° (WSW) 18:04:21 436.795
BEESAT 3 20 Jan 17:57:28 18:00:51 27° 313° (NW) 18:04:18 437.485
M-CUBED/EXP-1 PRIME 20 Jan 18:11:00 18:13:11 17° 300° (WNW) 18:15:21 437.505
LilacSat-2 20 Jan 18:14:26 18:18:10 72° 258° (WSW) 18:21:59 437.200
STARS 20 Jan 18:18:54 18:23:02 42° 289° (WNW) 18:27:09 437.465
CUTE-I 20 Jan 18:33:35 18:38:49 59° 259° (W) 18:44:04 437.470
BRITE-PL 20 Jan 18:36:21 18:38:56 13° 273° (W) 18:41:32 437.365/2234.400
GOMX 1 20 Jan 18:37:04 18:41:28 25° 266° (W) 18:45:46 467.674
BEESAT 2 20 Jan 18:42:58 18:46:10 23° 315° (NW) 18:49:25 435.950
CUTE 1.7 + AOD 2 20 Jan 18:45:00 18:48:28 25° 68° (ENE) 18:51:57 437.475
GONETS M04 20 Jan 18:57:57 19:03:51 21° 78° (ENE) 19:09:48
CINEMA 3 20 Jan 19:04:22 19:08:47 72° 76° (ENE) 19:13:02 145.822/145.860
AIST 2 20 Jan 19:05:46 19:08:08 15° 110° (ESE) 19:10:33 435.215
HO-68 20 Jan 19:06:47 19:13:52 64° 69° (ENE) 19:20:58 435.675
CUBESAT XI-V 20 Jan 19:12:10 19:14:42 15° 298° (WNW) 19:17:14 437.345
CANX-2 20 Jan 19:13:26 19:17:36 58° 74° (ENE) 19:21:49 2200.000
DOVE 4 20 Jan 19:15:28 19:19:25 23° 266° (W) 19:23:13 437.250
Cubesat XI-IV 20 Jan 19:18:06 19:22:24 25° 266° (W) 19:26:43 437.490
NOAA 18 20 Jan 19:23:19 19:28:26 39° 262° (W) 19:33:34 137.9125
STRAND 1 20 Jan 19:23:42 19:28:06 28° 95° (E) 19:32:29 437.568
SEEDS 20 Jan 19:24:10 19:28:10 43° 72° (ENE) 19:32:12 437.485
NOAA 15 20 Jan 19:26:51 19:30:36 19° 268° (W) 19:34:23 137.62
COMPASS 1 20 Jan 19:29:21 19:33:07 33° 70° (ENE) 19:36:53 437.405
Cosmos 2499 20 Jan 19:33:30 19:41:16 43° 89° (E) 19:48:33 435.465 / 435.565
AAUSAT CUBESAT 2 20 Jan 19:40:22 19:44:07 33° 70° (ENE) 19:47:54 437.432
Oscar 11 20 Jan 19:44:50 19:47:27 16° 64° (ENE) 19:50:06 145.826/435.025
CUBEBUG 2 20 Jan 19:57:30 20:01:37 63° 75° (ENE) 20:05:43 437.445
FUNcube-1 20 Jan 20:20:20 20:24:09 37° 71° (ENE) 20:28:00 145.935
CUTE 1.7 + AOD 2 20 Jan 20:20:27 20:24:10 30° 264° (W) 20:27:57 437.475
UWE-3 20 Jan 20:25:15 20:29:23 81° 76° (ENE) 20:33:33 435.000/436.395/437.385
AIST 2 20 Jan 20:42:08 20:46:10 54° 307° (NW) 20:50:17 435.215
ZACube-1 20 Jan 20:43:16 20:47:23 76° 77° (ENE) 20:51:34 437.345
CINEMA 3 20 Jan 20:45:57 20:46:21 10° 271° (W) 20:46:45 145.822/145.860
GONETS M04 20 Jan 20:50:49 20:59:32 83° 278° (W) 21:08:22
CANX-2 20 Jan 20:51:58 20:53:50 13° 270° (W) 20:55:42 2200.000
HUMSAT D 20 Jan 20:53:09 20:55:37 16° 64° (ENE) 20:58:07 437.325/437.525
DELFI C3 20 Jan 20:54:57 20:58:24 28° 69° (ENE) 21:01:51 145.870
HO-68 20 Jan 20:56:19 21:02:03 25° 267° (W) 21:07:50 435.675
SEEDS 20 Jan 21:01:22 21:04:04 17° 268° (W) 21:06:48 437.485
STRAND 1 20 Jan 21:02:38 21:07:19 37° 292° (WNW) 21:12:00 437.568
PRISM 20 Jan 21:04:30 21:06:37 14° 91° (E) 21:08:43 437.425
COMPASS 1 20 Jan 21:05:28 21:08:42 21° 266° (W) 21:11:58 437.405
AAUSAT CUBESAT 2 20 Jan 21:16:27 21:19:38 21° 267° (W) 21:22:51 437.432
Oscar 11 20 Jan 21:18:59 21:23:10 50° 260° (W) 21:27:25 145.826/435.025
Cosmos 2499 20 Jan 21:26:38 21:34:24 41° 287° (WNW) 21:41:41 435.465 / 435.565
UNISAT 6 20 Jan 21:35:48 21:36:12 10° 89° (E) 21:36:36 437.425
CUBEBUG 2 20 Jan 21:37:39 21:38:39 11° 271° (W) 21:39:40 437.445
TIGRISAT 20 Jan 21:47:25 21:49:34 13° 91° (E) 21:51:43 435.000
BY70-1 20 Jan 21:48:37 21:49:36 11° 64° (ENE) 21:50:37 436.1900
ESTCUBE 1 20 Jan 21:52:32 21:53:53 11° 60° (ENE) 21:55:13 437.505/2401.250
FUNcube-1 20 Jan 21:57:43 22:00:32 18° 268° (W) 22:03:24 145.935
AO-85 20 Jan 21:59:30 22:02:21 19° 43° (NE) 22:05:09 145.980
ANTELSAT 20 Jan 22:01:47 22:05:06 20° 94° (E) 22:08:27 437.575/2403.000
ISS 20 Jan 22:16:33 22:19:25 29° 137° (SE) 22:22:18 145.825
HUMSAT D 20 Jan 22:26:54 22:30:50 46° 261° (W) 22:34:51 437.325/437.525
JAS-2 20 Jan 22:27:27 22:32:52 22° 91° (E) 22:38:30 435.910
DELFI C3 20 Jan 22:29:57 22:33:11 23° 266° (W) 22:36:25 145.870
PRISM 20 Jan 22:38:12 22:42:11 49° 288° (WNW) 22:46:08 437.425
CUBEBUG 1 20 Jan 22:45:12 22:48:35 22° 66° (ENE) 22:51:59 437.445
GONETS M04 20 Jan 22:52:17 22:57:51 18° 301° (WNW) 23:03:29
AISAT 20 Jan 23:02:39 23:06:08 23° 66° (ENE) 23:09:36 437.250
UNISAT 6 20 Jan 23:08:57 23:13:24 78° 284° (WNW) 23:17:55 437.425
RS-15 20 Jan 23:11:24 23:22:02 42° 107° (ESE) 23:33:03 29.354- 29.394
BY70-1 20 Jan 23:16:39 23:19:28 37° 262° (W) 23:22:31 436.1900
TIGRISAT 20 Jan 23:22:14 23:26:36 60° 286° (WNW) 23:31:03 435.000
POPSAT HIP 1 20 Jan 23:23:52 23:26:04 14° 91° (E) 23:28:17 437.405
ESTCUBE 1 20 Jan 23:25:26 23:29:59 85° 257° (WSW) 23:34:34 437.505/2401.250
DUCHIFAT 1 20 Jan 23:33:51 23:36:22 15° 92° (E) 23:38:54 145.980
VELOX 1 20 Jan 23:35:05 23:39:19 45° 71° (ENE) 23:43:34 145.980
ANTELSAT 20 Jan 23:37:47 23:41:55 39° 289° (WNW) 23:46:08 437.575/2403.000
NANOSAT C BR1 20 Jan 23:39:11 23:42:15 19° 93° (E) 23:45:19 145.865
AO-85 20 Jan 23:39:13 23:42:58 46° 242° (WSW) 23:46:43 145.980
ISS 20 Jan 23:52:44 23:55:50 38° 334° (NNW) 23:58:55 145.825
SPROUT 21 Jan 00:00:21 00:04:32 61° 74° (ENE) 00:08:44 437.525
UKube-1 21 Jan 00:04:11 00:08:03 33° 69° (ENE) 00:11:57 .
DX 1 21 Jan 00:05:40 00:09:51 47° 71° (ENE) 00:14:04 434.975-435.025
BUGSAT 1 21 Jan 00:07:16 00:08:54 12° 91° (E) 00:10:31 437.445
JAS-2 21 Jan 00:11:11 00:18:21 78° 287° (WNW) 00:26:08 435.910
YUBILEINY 21 Jan 00:17:33 00:24:04 22° 62° (ENE) 00:30:29 435.215
CUBEBUG 1 21 Jan 00:20:35 00:24:38 36° 262° (W) 00:28:44 437.445
50 SAT 21 Jan 00:23:43 00:27:14 62° 259° (W) 00:30:49 437.505
QB50P1 21 Jan 00:30:57 00:35:11 81° 104° (ESE) 00:39:24 145.935-145.965
POLYITAN 1 21 Jan 00:35:15 00:39:30 90° 354° (N) 00:43:45 437.675
BEESAT 3 21 Jan 00:35:53 00:39:12 24° 46° (NE) 00:42:30 437.485
QB50P2 21 Jan 00:36:33 00:40:47 82° 284° (WNW) 00:45:01 145.880/145.840
AISAT 21 Jan 00:38:17 00:42:23 36° 263° (W) 00:46:29 437.250
PCSat 21 Jan 00:48:03 00:53:08 44° 113° (ESE) 00:58:15 145.827
POPSAT HIP 1 21 Jan 00:58:03 01:02:08 51° 287° (WNW) 01:06:15 437.405
DUCHIFAT 1 21 Jan 01:08:16 01:12:17 45° 288° (WNW) 01:16:17 145.980
Cosmos 2491 21 Jan 01:09:34 01:15:26 21° 78° (ENE) 01:21:20 435.465 / 435.565
VELOX 1 21 Jan 01:13:01 01:15:59 17° 267° (W) 01:18:58 145.980
Cosmos 2504 21 Jan 01:13:36 01:19:07 22° 65° (ENE) 01:24:28 435.465 / 435.565
NANOSAT C BR1 21 Jan 01:14:13 01:18:05 36° 290° (WNW) 01:21:57 145.865
AIST 1 21 Jan 01:14:35 01:18:44 47° 78° (ENE) 01:22:49
BEESAT 2 21 Jan 01:21:35 01:25:12 30° 48° (NE) 01:28:48 435.950
RS-15 21 Jan 01:22:05 01:33:57 65° 310° (NW) 01:46:17 29.354- 29.394
TISAT 1 21 Jan 01:26:26 01:30:35 80° 77° (ENE) 01:34:47 437.305
ISS 21 Jan 01:30:42 01:32:57 17° 354° (N) 01:35:13 145.825
Oscar 19 21 Jan 01:31:48 01:36:19 30° 95° (E) 01:40:46 437.125/150
SPROUT 21 Jan 01:39:14 01:40:50 12° 270° (W) 01:42:28 437.525
BUGSAT 1 21 Jan 01:40:38 01:44:35 54° 287° (WNW) 01:48:32 437.445
UKube-1 21 Jan 01:40:43 01:44:08 23° 265° (W) 01:47:34 .
DX 1 21 Jan 01:43:32 01:46:17 16° 268° (W) 01:49:03 434.975-435.025
ITUPSAT 1 21 Jan 01:48:28 01:52:32 29° 67° (ENE) 01:56:38 437.325
Gurwin Techsat 1B 21 Jan 01:50:24 01:54:41 24° 94° (E) 01:58:57 435.225
JAS-2 21 Jan 01:58:06 02:02:27 17° 303° (WNW) 02:06:58 435.910
QB50P1 21 Jan 02:09:43 02:10:18 10° 300° (WNW) 02:10:54 145.935-145.965
YUBILEINY 21 Jan 02:13:09 02:22:01 84° 264° (W) 02:30:47 435.215
BEESAT 3 21 Jan 02:13:13 02:16:53 35° 244° (WSW) 02:20:32 437.485
MOZHAYETS 4 21 Jan 02:14:30 02:17:16 16° 63° (ENE) 02:20:03
BEESAT 21 Jan 02:21:59 02:26:39 62° 73° (ENE) 02:31:23 436.000
SWISSCUBE 21 Jan 02:23:38 02:28:21 73° 74° (ENE) 02:33:08 437.505
AUBIESAT-1 21 Jan 02:26:56 02:27:56 11° 57° (ENE) 02:28:54 437.475
PCSat 21 Jan 02:31:54 02:36:40 30° 312° (NW) 02:41:28 145.827
KKS-1 21 Jan 02:50:53 02:52:46 13° 61° (ENE) 02:54:38 437.445
AIST 1 21 Jan 02:53:36 02:55:51 14° 275° (W) 02:58:05
BEESAT 2 21 Jan 02:59:28 03:02:55 27° 246° (WSW) 03:06:20 435.950
PHONESAT 2.4 21 Jan 03:01:12 03:03:16 30° 167° (SSE) 03:05:21 2401.200-2431.200
ISS 21 Jan 03:07:43 03:10:17 21° 14° (NNE) 03:12:51 145.825
